DMSP 5D-2 F13 DEB, 40443

Orbit data source: Space-Track

DMSP 5D-2 F13 DEB, 40443 is space debris in SSO originally from a launch on Fri, 24 Mar 1995 UTC launched from the Air Force Western Test Range (AFWTR). Debris objects in space refer to the collection of defunct objects orbiting the Earth. Examples of debris include non-operational satellites, rocket bodies, and fragments generated from explosions, collisions, or faulty payload assembly.

Loading next visibility...
Identifier
40443, 1995-015AV
Orbit
SSO
Country
Flag of USUS
Related business
Manufacturer
Unknown
Mission
Spacecraft
Bus & Motor
Unknown
Mass
Unknown
Launch date (UTC)
1995-03-24 (31 years ago)
Launch vehicle
Unknown
Launch site
Air Force Western Test Range (AFWTR)
Object type
Payload
Rocket body
Debris
Shape & HBR
Unknown shape, 0.1 m
Radar Cross Section
Medium (>0.1 m² and <1 m²)

Expand to show TLE details & history
Last TLE update: 2 days ago

TLE from 2 days ago
0 DMSP 5D-2 F13 DEB
1 40443U 95015AV  26171.32769120  .00000096  00000-0  61445-4 0  9991
2 40443  98.6117 185.2324 0039071 333.9384  25.9826 14.22976530586478
Epoch: 2026-06-20T07:51Z
TLE epoch observation values (Epoch: 2026-06-20T07:51:52.519Z)
Latitude
-0.00011°
Longitude
158.71969°
Altitude
792.977 km
Speed
7.47 km/s
True Right ascension
12h 20m 55s
True Declination
0° 00' 00"
Sunlit
Object was in daylight at epoch
Visualization orbit readout
Latitude
Unknown
Longitude
Unknown
Altitude
Unknown
Speed
Unknown
Apparent Right ascension
Unknown
Apparent Declination
Unknown
Sunlit
N/A
Visualization observer readout
Local Sidereal Time
16:21:45
Azimuth
Unknown
Elevation
Unknown
Doppler factor
Unknown
Orbital elements
Apogee altitude
840.548 km
Perigee altitude
784.359 km
Semi-major axis
7,190.591 km
Eccentricity
0.00391
Inclination
98.6117°
RAAN
185.2324°
Arg. of periapsis
333.9384°
True anomaly
26.17961°
Mean anomaly
25.9826°
Eccentric anomaly
26.08102°
Mean motion
3.55956 °/min
Orbital period
101.14 mins
BSTAR
0.000061445
Loading maneuver chart data...
Computing Atmospheric mass density...

Documentation

Showing up to 5 results
|